Location: Gleizolles
(44.4833°N, 6.7667°E)
Time: 17:02:04
(UTC+00:00)

Tiros 1 - Pass Details

Date: 30 June 2024
Orbit: 624 x 656 km, 48.4° (Epoch: 13 July)

Event Time Altitude Azimuth Distance (km) Brightness Sun altitude
Rises 21:09:23 0° 247° (WSW) 2,898 10.7 -14.5°
Reaches altitude 10° 21:11:41 10° 248° (WSW) 1,991 9.8 -14.7°
Maximum altitude 21:16:17 87° 338° (NNW) 629 7.1 -15.2°
Drops below altitude 10° 21:20:53 10° 68° (ENE) 1,999 9.6 -15.6°
Sets 21:23:12 0° 69° (ENE) 2,909 10.4 -15.8°
